When you browse on this site, cookies collect data to enhance your experience and personalize the content and advertising you see.
Visit our Privacy Policy to learn more. By continuing to use the site, you agree to this use of cookies and data.
  • în România
  • Lista ţărilor
  • Pe 7 zile
  • Temperatura apei
  • Hartă satelitară
  • Meteo pe hartă
  • Widget-uri
  • user-avatar
    Intrare

    Meteo pe oră la Shkoder

    Astăzi, 17 Ianuarie, Joi

    Timp Temperatura Precipitaţii Vânt Presiune Umiditate
    00:00 +2°C° 0 mm 1 m/s 744 mmHg 79%
    01:00 +1°C° 0 mm 2 m/s 743 mmHg 80%
    02:00 +1°C° 0 mm 2 m/s 743 mmHg 80%
    03:00 -1°C° 0 mm 2 m/s 743 mmHg 81%
    04:00 -1°C° 0 mm 2 m/s 743 mmHg 81%
    05:00 +1°C° 0 mm 2 m/s 743 mmHg 81%
    06:00 +1°C° 0 mm 2 m/s 743 mmHg 81%
    07:00 +1°C° 0 mm 2 m/s 743 mmHg 81%
    08:00 +3°C° 0 mm 1 m/s 743 mmHg 82%
    09:00 +5°C° 0 mm 1 m/s 743 mmHg 82%
    10:00 +7°C° 0 mm 1 m/s 742 mmHg 83%
    11:00 +7°C° 0 mm 1 m/s 742 mmHg 82%
    12:00 +8°C° 0 mm 1 m/s 742 mmHg 80%
    13:00 +9°C° 0 mm 1 m/s 742 mmHg 78%
    14:00 +8°C° 0 mm 1 m/s 742 mmHg 79%
    15:00 +7°C° 0 mm 1 m/s 742 mmHg 80%
    16:00 +6°C° 0 mm 1 m/s 741 mmHg 80%
    17:00 +6°C° 0 mm 1 m/s 741 mmHg 80%
    18:00 +5°C° 0 mm 1 m/s 741 mmHg 80%
    19:00 +3°C° 0 mm 2 m/s 741 mmHg 79%
    20:00 +3°C° 0 mm 2 m/s 741 mmHg 78%
    21:00 +3°C° 0 mm 2 m/s 741 mmHg 77%
    22:00 +3°C° 0 mm 2 m/s 741 mmHg 76%
    23:00 +4°C° 0 mm 2 m/s 741 mmHg 77%

    Mâine, 18 Ianuarie, Vineri

    Timp Temperatura Precipitaţii Vânt Presiune Umiditate
    00:00 +4°C° 0 mm 2 m/s 741 mmHg 78%
    01:00 +4°C° 0 mm 2 m/s 741 mmHg 79%
    02:00 +5°C° 0 mm 2 m/s 740 mmHg 81%
    03:00 +5°C° 0 mm 2 m/s 740 mmHg 83%
    04:00 +7°C° 0 mm 1 m/s 740 mmHg 84%
    05:00 +7°C° 0 mm 1 m/s 740 mmHg 85%
    06:00 +7°C° 0 mm 1 m/s 739 mmHg 86%
    07:00 +7°C° 0 mm 1 m/s 739 mmHg 86%
    08:00 +7°C° 0 mm 1 m/s 739 mmHg 86%
    09:00 +8°C° 0 mm 1 m/s 739 mmHg 86%
    10:00 +9°C° 0 mm 1 m/s 739 mmHg 86%
    11:00 +9°C° 0.1 mm 1 m/s 739 mmHg 87%
    12:00 +9°C° 0.1 mm 1 m/s 738 mmHg 88%
    13:00 +9°C° 0.1 mm 1 m/s 738 mmHg 88%
    14:00 +9°C° 0.1 mm 1 m/s 738 mmHg 88%
    15:00 +8°C° 0.1 mm 1 m/s 738 mmHg 88%
    16:00 +8°C° 0.1 mm 1 m/s 738 mmHg 88%
    17:00 +8°C° 0 mm 1 m/s 738 mmHg 88%
    18:00 +8°C° 0 mm 1 m/s 738 mmHg 88%
    19:00 +7°C° 0 mm 1 m/s 739 mmHg 88%
    20:00 +7°C° 0.1 mm 1 m/s 739 mmHg 87%
    21:00 +7°C° 0.1 mm 1 m/s 739 mmHg 87%
    22:00 +7°C° 0.1 mm 1 m/s 739 mmHg 87%
    23:00 +7°C° 0.4 mm 1 m/s 739 mmHg 88%

    Poimâine, 19 Ianuarie, Sâmbătă

    Timp Temperatura Precipitaţii Vânt Presiune Umiditate
    00:00 +7°C° 0.4 mm 1 m/s 739 mmHg 88%
    01:00 +7°C° 0.4 mm 1 m/s 739 mmHg 89%
    02:00 +7°C° 0.5 mm 1 m/s 739 mmHg 89%
    03:00 +7°C° 0.5 mm 1 m/s 739 mmHg 89%
    04:00 +7°C° 0.5 mm 1 m/s 739 mmHg 89%
    05:00 +6°C° 0.3 mm 2 m/s 739 mmHg 88%
    06:00 +6°C° 0.3 mm 2 m/s 739 mmHg 88%
    07:00 +6°C° 0.3 mm 2 m/s 739 mmHg 87%
    08:00 +7°C° 0.1 mm 2 m/s 739 mmHg 85%
    09:00 +8°C° 0.1 mm 2 m/s 739 mmHg 83%
    10:00 +8°C° 0.1 mm 2 m/s 739 mmHg 81%
    11:00 +10°C° 0 mm 1 m/s 739 mmHg 77%
    12:00 +11°C° 0 mm 1 m/s 738 mmHg 74%
    13:00 +12°C° 0 mm 1 m/s 738 mmHg 70%
    14:00 +11°C° 0 mm 1 m/s 738 mmHg 73%
    15:00 +10°C° 0 mm 1 m/s 738 mmHg 76%
    16:00 +10°C° 0 mm 1 m/s 737 mmHg 80%
    17:00 +9°C° 0.1 mm 1 m/s 738 mmHg 81%
    18:00 +8°C° 0.1 mm 1 m/s 738 mmHg 82%
    19:00 +8°C° 0.1 mm 1 m/s 738 mmHg 83%
    20:00 +8°C° 0 mm 1 m/s 738 mmHg 82%
    21:00 +7°C° 0 mm 2 m/s 738 mmHg 82%
    22:00 +6°C° 0 mm 2 m/s 738 mmHg 81%
    23:00 +7°C° 0.2 mm 1 m/s 738 mmHg 81%

    20 Ianuarie, Duminică

    Timp Temperatura Precipitaţii Vânt Presiune Umiditate
    00:00 +7°C° 0.2 mm 1 m/s 738 mmHg 82%
    01:00 +8°C° 0.2 mm 1 m/s 738 mmHg 82%
    02:00 +7°C° 1 mm 1 m/s 737 mmHg 85%
    03:00 +7°C° 1 mm 1 m/s 737 mmHg 87%
    04:00 +7°C° 1 mm 1 m/s 737 mmHg 90%
    05:00 +7°C° 0.9 mm 1 m/s 737 mmHg 90%
    06:00 +7°C° 0.9 mm 1 m/s 737 mmHg 91%
    07:00 +7°C° 0.9 mm 1 m/s 737 mmHg 92%
    08:00 +7°C° 1 mm 1 m/s 738 mmHg 92%
    09:00 +8°C° 1 mm 1 m/s 738 mmHg 92%
    10:00 +8°C° 1 mm 1 m/s 738 mmHg 92%
    11:00 +8°C° 0.3 mm 1 m/s 738 mmHg 91%
    12:00 +9°C° 0.3 mm 1 m/s 738 mmHg 89%
    13:00 +9°C° 0.3 mm 1 m/s 738 mmHg 87%
    14:00 +9°C° 0.1 mm 1 m/s 738 mmHg 86%
    15:00 +9°C° 0.1 mm 1 m/s 738 mmHg 86%
    16:00 +9°C° 0.1 mm 1 m/s 738 mmHg 85%
    17:00 +8°C° 0 mm 1 m/s 738 mmHg 86%
    18:00 +7°C° 0 mm 1 m/s 738 mmHg 87%
    19:00 +7°C° 0 mm 1 m/s 739 mmHg 88%
    20:00 +7°C° 0 mm 1 m/s 739 mmHg 88%
    21:00 +6°C° 0 mm 1 m/s 739 mmHg 88%
    22:00 +6°C° 0 mm 1 m/s 740 mmHg 88%
    23:00 +6°C° 0.3 mm 1 m/s 740 mmHg 88%

    21 Ianuarie, Luni

    Timp Temperatura Precipitaţii Vânt Presiune Umiditate
    00:00 +7°C° 0.3 mm 1 m/s 740 mmHg 89%
    01:00 +7°C° 0.3 mm 1 m/s 740 mmHg 89%
    02:00 +7°C° 0.4 mm 1 m/s 740 mmHg 89%
    03:00 +7°C° 0.4 mm 1 m/s 740 mmHg 89%
    04:00 +7°C° 0.4 mm 1 m/s 740 mmHg 89%
    05:00 +6°C° 0.2 mm 1 m/s 740 mmHg 89%
    06:00 +6°C° 0.2 mm 1 m/s 740 mmHg 88%
    07:00 +6°C° 0.2 mm 1 m/s 740 mmHg 88%
    08:00 +7°C° 0.2 mm 1 m/s 740 mmHg 86%
    09:00 +8°C° 0.2 mm 1 m/s 740 mmHg 84%
    10:00 +8°C° 0.2 mm 1 m/s 740 mmHg 82%
    11:00 +8°C° 0.6 mm 1 m/s 740 mmHg 83%
    12:00 +8°C° 0.6 mm 1 m/s 739 mmHg 84%
    13:00 +8°C° 0.6 mm 1 m/s 739 mmHg 84%
    14:00 +8°C° 1 mm 1 m/s 739 mmHg 85%
    15:00 +8°C° 1 mm 1 m/s 738 mmHg 86%
    16:00 +7°C° 1 mm 2 m/s 738 mmHg 87%
    17:00 +6°C° 0.5 mm 2 m/s 738 mmHg 86%
    18:00 +6°C° 0.5 mm 2 m/s 738 mmHg 85%
    19:00 +6°C° 0.5 mm 2 m/s 738 mmHg 85%
    20:00 +6°C° 0.3 mm 2 m/s 738 mmHg 84%
    21:00 +6°C° 0.3 mm 2 m/s 737 mmHg 83%
    22:00 +5°C° 0.3 mm 3 m/s 737 mmHg 83%
    23:00 +4°C° 0.5 mm 3 m/s 737 mmHg 83%

    22 Ianuarie, Marţi

    Timp Temperatura Precipitaţii Vânt Presiune Umiditate
    00:00 +4°C° 0.5 mm 3 m/s 736 mmHg 83%
    01:00 +4°C° 0.5 mm 3 m/s 735 mmHg 83%
    02:00 +4°C° 1 mm 3 m/s 735 mmHg 84%
    03:00 +4°C° 1 mm 3 m/s 734 mmHg 85%
    04:00 +4°C° 1 mm 3 m/s 733 mmHg 86%
    05:00 +4°C° 2.2 mm 3 m/s 733 mmHg 86%
    06:00 +4°C° 2.2 mm 3 m/s 732 mmHg 87%
    07:00 +4°C° 2.2 mm 3 m/s 732 mmHg 88%
    08:00 +4°C° 2.2 mm 3 m/s 732 mmHg 89%
    09:00 +5°C° 2.2 mm 3 m/s 731 mmHg 90%
    10:00 +5°C° 2.2 mm 3 m/s 731 mmHg 91%
    11:00 +7°C° 2.5 mm 3 m/s 731 mmHg 92%
    12:00 +7°C° 2.5 mm 3 m/s 730 mmHg 93%
    13:00 +8°C° 2.5 mm 3 m/s 730 mmHg 94%
    14:00 +8°C° 2.7 mm 3 m/s 730 mmHg 95%
    15:00 +8°C° 2.7 mm 2 m/s 730 mmHg 96%
    16:00 +8°C° 2.7 mm 2 m/s 730 mmHg 97%
    17:00 +8°C° 0.5 mm 2 m/s 730 mmHg 97%
    18:00 +7°C° 0.5 mm 2 m/s 730 mmHg 97%
    19:00 +7°C° 0.5 mm 2 m/s 731 mmHg 97%
    20:00 +7°C° 0.4 mm 2 m/s 731 mmHg 97%
    21:00 +8°C° 0.4 mm 1 m/s 731 mmHg 97%
    22:00 +8°C° 0.4 mm 1 m/s 731 mmHg 97%
    23:00 +8°C° 0.3 mm 1 m/s 731 mmHg 97%
    Arată mai mult